[[{"header":{"parameterUnit":"m.s-1","parameterCategory":1,"la1":30.2991,"la2":30.254,"lo1":-89.0895,"lo2":-89.0444,"dy":0.0017,"dx":0.0017,"nx":28,"ny":28,"refTime":"2024-04-12T21:00:00:Z","depth":0,"parameterNumber":2,"parameterNumberName":"U-component_of_WINDS"},"data":[0,0,0,0,0,0,0,0,0,0,0,0,0,0,0,0,0,0,0,0,0,0,0,0,0,0,0,0,0,0,0,0,0,0,0,0,0,0,0,0,0,0,0,0,0,0,0,0,0,0,0,0,0,0,0,0,0,0,1.5676,1.5677,0,1.5699,1.5699,1.5699,1.567,1.5669,1.5668,1.5667,1.5688,1.5689,1.5691,0,0,0,0,0,0,0,0,0,0,0,0,0,1.5607,1.5609,1.5676,1.5677,1.5677,1.5699,1.5699,1.5699,1.567,1.5669,1.5667,1.5666,1.5687,1.5689,1.5691,0,0,0,0,0,0,0,0,0,0,0,0,0,1.5634,1.5609,1.5676,1.5665,1.5664,1.5699,1.5699,1.5699,1.567,1.5669,1.5667,1.5665,1.5687,1.5689,1.5691,1.5738,0,0,1.5699,1.57,0,0,0,0,0,0,0,0,1.5633,1.5637,1.5666,1.5666,1.5665,1.568,1.5682,1.5712,1.5671,1.5668,1.5667,1.5665,1.5686,1.5689,1.5696,1.5739,1.574,1.5699,1.57,1.5701,1.5702,0,0,0,0,0,0,0,1.5631,1.5636,1.5685,1.5667,1.5666,1.5658,1.566,1.5688,1.5686,1.5668,1.5666,1.5669,1.5686,1.5694,1.5697,1.574,1.5699,1.5701,1.5702,1.5703,1.5823,1.5824,0,0,0,0,0,0,1.563,1.5634,1.5684,1.5686,1.5645,1.5661,1.5663,1.5677,1.5685,1.5685,1.567,1.5668,1.5691,1.5694,1.5697,1.5753,1.5701,1.5703,1.5705,1.5821,1.5823,1.5825,0,0,0,0,0,0,1.5629,1.5635,1.5684,1.5659,1.5665,1.5664,1.5679,1.5678,1.5686,1.5687,1.5687,1.5679,1.569,1.5694,1.5728,1.5753,1.5704,1.5707,1.5819,1.5822,1.5824,1.5865,0,0,0,0,0,0,1.5627,1.5635,1.5653,1.566,1.5666,1.5715,1.5681,1.5679,1.5691,1.5687,1.5696,1.5695,1.5689,1.5725,1.5731,1.5756,1.5708,1.5817,1.582,1.5823,1.5861,1.5868,1.5875,0,0,0,0,0,1.5625,1.5663,1.5654,1.566,1.5689,1.5716,1.572,1.5712,1.5693,1.5711,1.5711,1.5695,1.575,1.5729,1.5735,1.5761,1.5815,1.5819,1.5823,1.5858,1.5867,1.5875,0,0,0,0,0,0,1.5657,1.5663,1.5654,1.5695,1.5705,1.5711,1.5733,1.5721,1.5737,1.5733,1.5722,1.5724,1.5761,1.5764,1.5741,1.5807,1.5779,1.5785,1.5804,1.5812,1.5819,1.5818,1.571,0,0,0,0,0,1.5669,1.5691,1.5695,1.5731,1.5737,1.5735,1.5746,1.5739,1.5749,1.5753,1.5757,1.5767,1.5786,1.5799,1.5817,1.5861,1.5863,1.5882,1.5889,1.5895,1.59,1.5924,1.5933,1.5838,1.5838,1.5838,0,0,1.5694,1.57,1.5715,1.5738,1.5745,1.5769,1.5738,1.5764,1.5781,1.5757,1.579,1.5793,1.5803,1.5843,1.5861,1.5847,1.5926,1.59,1.5904,1.5906,1.593,1.5939,1.5947,1.5841,1.584,1.584,0,0,1.5752,1.5758,1.579,1.5798,1.581,1.5808,1.5815,1.5823,1.5824,1.5858,1.5841,1.5861,1.5894,1.5903,1.5912,1.5974,1.596,1.598,1.6015,1.6039,1.6047,1.6054,1.6077,1.6085,1.5984,1.5984,1.5985,0,1.5781,1.5816,1.5807,1.5834,1.5845,1.5826,1.5858,1.5866,1.5883,1.5891,1.5875,1.5918,1.5923,1.5965,1.5981,1.5988,1.5997,1.5979,1.6047,1.6053,1.6059,1.6081,1.609,1.5987,1.5987,1.5986,1.5986,0,1.5852,1.5876,1.59,1.5918,1.5932,1.5961,1.5957,1.5971,1.5964,1.5963,1.5998,1.6004,1.6024,1.6033,1.6025,1.6074,1.6066,1.6048,1.602,1.6071,1.6091,1.61,1.599,1.599,1.5989,1.5988,0,0,1.593,1.5944,1.5953,1.5961,1.5973,1.5992,1.602,1.604,1.6053,1.6066,1.609,1.6119,1.6104,1.6114,1.6107,1.6128,1.6178,1.6108,1.6108,1.6122,1.6234,1.6248,1.6258,1.6169,1.617,1.6172,1.6234,0,1.5989,1.6039,1.6033,1.6081,1.6104,1.6086,1.6111,1.6121,1.6122,1.6141,1.6141,1.6163,1.614,1.6146,1.6167,1.6168,1.6201,1.6163,1.6191,1.6193,1.619,1.6268,1.6282,1.6341,1.6242,1.6243,1.6244,0,1.6064,1.608,1.6131,1.6141,1.615,1.6173,1.6191,1.6209,1.622,1.6219,1.6231,1.6221,1.625,1.6221,1.6261,1.6235,1.6246,1.6249,1.6251,1.6254,1.6222,1.6274,1.6359,1.6368,1.6256,1.6255,1.6254,0,1.6118,1.6152,1.6187,1.6195,1.6206,1.6223,1.6229,1.6238,1.6251,1.6266,1.6275,1.6293,1.6303,1.6318,1.6313,1.6292,1.6354,1.6325,1.6355,1.6355,1.6369,1.6368,1.6458,1.6375,1.6375,1.6374,1.6374,0,1.6184,1.6216,1.6212,1.6234,1.6269,1.6261,1.6297,1.63,1.6309,1.6331,1.6316,1.6337,1.6328,1.6349,1.6344,1.6379,1.6383,1.6383,1.6382,1.6385,1.6386,1.6393,1.6389,1.6377,1.6376,1.6376,1.6375,0,1.625,1.6249,1.6286,1.6295,1.6297,1.6323,1.633,1.6351,1.6351,1.6379,1.6385,1.6384,1.6408,1.6404,1.6429,1.6427,1.647,1.6463,1.6467,1.6465,1.6496,1.6494,1.6594,1.6607,1.6515,1.6516,1.6517,0,1.6294,1.6318,1.633,1.6344,1.6351,1.6373,1.6387,1.638,1.6394,1.6409,1.6428,1.645,1.6468,1.6506,1.6508,1.6528,1.6522,1.6556,1.6525,1.6527,1.6523,1.6523,1.6525,1.6562,1.6563,1.6564,1.6565,0,1.6371,1.6369,1.6389,1.6409,1.6425,1.6441,1.6454,1.6466,1.6461,1.6478,1.6502,1.6516,1.6542,1.6565,1.6583,1.6589,1.6576,1.6574,1.6582,1.6586,1.6588,1.6589,1.6485,1.6572,1.6571,1.6571,1.657,1.657,1.6428,1.6449,1.6461,1.6484,1.6494,1.6507,1.6527,1.653,1.655,1.6572,1.6566,1.6594,1.6605,1.6629,1.6636,1.6658,1.6645,1.6657,1.666,1.6663,1.6668,1.6584,1.6661,1.6661,1.6661,1.666,1.666,0,1.6505,1.6512,1.6533,1.6553,1.6572,1.6558,1.6573,1.6589,1.6614,1.6625,1.6643,1.6672,1.6694,1.6697,1.6718,1.6735,1.673,1.6741,1.674,1.6742,1.6677,1.6668,1.6745,1.6745,1.6745,1.6745,1.6745,1.6745,1.6548,1.6584,1.6583,1.6624,1.663,1.6658,1.6668,1.668,1.669,1.6722,1.6741,1.6743,1.6752,1.6773,1.6793,1.6794,1.6802,1.6816,1.6814,1.6754,1.6746,1.6738,1.673,1.6818,1.6818,1.6877,1.6878,1.6878]},{"header":{"parameterUnit":"m.s-1","parameterCategory":1,"la1":30.2991,"la2":30.254,"lo1":-89.0895,"lo2":-89.0444,"dy":0.0017,"dx":0.0017,"nx":28,"ny":28,"refTime":"2024-04-12T21:00:00:Z","depth":0,"parameterNumber":3,"parameterNumberName":"V-component_of_WINDS"},"data":[0,0,0,0,0,0,0,0,0,0,0,0,0,0,0,0,0,0,0,0,0,0,0,0,0,0,0,0,0,0,0,0,0,0,0,0,0,0,0,0,0,0,0,0,0,0,0,0,0,0,0,0,0,0,0,0,0,0,-1.7041,-1.7041,0,-1.71,-1.7101,-1.7101,-1.7108,-1.7108,-1.7107,-1.7107,-1.7167,-1.7169,-1.7171,0,0,0,0,0,0,0,0,0,0,0,0,0,-1.6934,-1.6936,-1.7041,-1.7041,-1.7042,-1.71,-1.7101,-1.7101,-1.7109,-1.7108,-1.7107,-1.7107,-1.7166,-1.7169,-1.7171,0,0,0,0,0,0,0,0,0,0,0,0,0,-1.6985,-1.6936,-1.704,-1.7053,-1.7054,-1.71,-1.7101,-1.7102,-1.7109,-1.7108,-1.7107,-1.7106,-1.7165,-1.7169,-1.7172,-1.7209,0,0,-1.7182,-1.7183,0,0,0,0,0,0,0,0,-1.6982,-1.6989,-1.705,-1.7052,-1.7054,-1.7096,-1.7085,-1.7138,-1.7109,-1.7088,-1.7107,-1.7106,-1.7144,-1.7149,-1.7162,-1.7212,-1.7214,-1.7182,-1.7184,-1.7185,-1.7186,0,0,0,0,0,0,0,-1.6979,-1.6987,-1.7064,-1.7051,-1.7053,-1.7055,-1.7062,-1.7095,-1.712,-1.709,-1.709,-1.7097,-1.7145,-1.7159,-1.7163,-1.7215,-1.7182,-1.7185,-1.7187,-1.7188,-1.7299,-1.73,0,0,0,0,0,0,-1.6973,-1.6984,-1.7062,-1.7066,-1.7015,-1.7058,-1.7065,-1.7083,-1.712,-1.7125,-1.7098,-1.7098,-1.7154,-1.716,-1.7166,-1.7211,-1.7185,-1.7188,-1.719,-1.7298,-1.7299,-1.73,0,0,0,0,0,0,-1.6971,-1.698,-1.706,-1.7025,-1.7035,-1.7061,-1.7081,-1.7085,-1.7099,-1.7126,-1.7131,-1.7108,-1.7153,-1.7161,-1.7198,-1.7214,-1.719,-1.7193,-1.7297,-1.7298,-1.73,-1.7303,0,0,0,0,0,0,-1.6968,-1.6979,-1.6993,-1.7025,-1.7037,-1.7091,-1.7082,-1.7087,-1.7104,-1.7104,-1.7136,-1.7141,-1.7153,-1.7193,-1.7201,-1.7218,-1.7195,-1.7295,-1.7297,-1.7299,-1.7302,-1.7305,-1.7307,0,0,0,0,0,-1.6964,-1.6992,-1.6994,-1.7003,-1.7056,-1.7092,-1.7099,-1.7113,-1.7106,-1.712,-1.7138,-1.714,-1.7211,-1.7197,-1.7206,-1.7224,-1.7294,-1.7297,-1.7299,-1.7301,-1.7304,-1.7307,0,0,0,0,0,0,-1.6961,-1.6996,-1.6999,-1.7038,-1.7062,-1.7093,-1.7112,-1.7116,-1.7142,-1.7141,-1.7157,-1.7164,-1.7201,-1.7216,-1.72,-1.7262,-1.7252,-1.7256,-1.725,-1.7254,-1.7256,-1.7252,-1.7198,0,0,0,0,0,-1.6965,-1.6992,-1.7021,-1.7053,-1.7065,-1.7087,-1.7103,-1.7112,-1.7137,-1.7147,-1.7167,-1.7192,-1.722,-1.7238,-1.7265,-1.7305,-1.7312,-1.7321,-1.7324,-1.7326,-1.7329,-1.7351,-1.7356,-1.7308,-1.7308,-1.7308,0,0,-1.6973,-1.6996,-1.7012,-1.7053,-1.7073,-1.71,-1.7095,-1.7124,-1.7145,-1.7152,-1.7188,-1.7204,-1.7232,-1.7271,-1.7289,-1.7284,-1.7344,-1.7329,-1.733,-1.7332,-1.7354,-1.7359,-1.7363,-1.7309,-1.7309,-1.7309,0,0,-1.7002,-1.7022,-1.7051,-1.7071,-1.7101,-1.7115,-1.7122,-1.7153,-1.7164,-1.72,-1.7206,-1.7231,-1.7279,-1.7299,-1.7315,-1.7353,-1.7355,-1.7361,-1.7375,-1.7396,-1.74,-1.7403,-1.7417,-1.7421,-1.7365,-1.7365,-1.7365,0,-1.7009,-1.705,-1.7065,-1.7095,-1.7112,-1.7121,-1.715,-1.7168,-1.7205,-1.7218,-1.7213,-1.7273,-1.7293,-1.7336,-1.7345,-1.7358,-1.7367,-1.7357,-1.7398,-1.7402,-1.7405,-1.7418,-1.7423,-1.7365,-1.7365,-1.7365,-1.7365,0,-1.7057,-1.7086,-1.7105,-1.7141,-1.7162,-1.7191,-1.721,-1.7229,-1.7236,-1.7251,-1.7289,-1.7313,-1.7345,-1.7356,-1.7363,-1.7401,-1.7397,-1.7395,-1.7385,-1.741,-1.7422,-1.7427,-1.7366,-1.7366,-1.7365,-1.7365,0,0,-1.7085,-1.7129,-1.7136,-1.7153,-1.7186,-1.7209,-1.7239,-1.727,-1.7286,-1.7312,-1.7337,-1.7378,-1.7376,-1.7395,-1.7405,-1.7423,-1.7452,-1.7419,-1.742,-1.7424,-1.7494,-1.7495,-1.75,-1.7454,-1.7455,-1.7456,-1.7491,0,-1.7118,-1.7171,-1.7185,-1.723,-1.7257,-1.7265,-1.7291,-1.7315,-1.733,-1.7355,-1.7371,-1.7399,-1.7396,-1.7407,-1.7426,-1.7444,-1.7466,-1.7442,-1.7477,-1.7478,-1.7469,-1.7507,-1.7508,-1.754,-1.7496,-1.7497,-1.7498,0,-1.7163,-1.7189,-1.7237,-1.7267,-1.7279,-1.7302,-1.7333,-1.7357,-1.7384,-1.7393,-1.7414,-1.7423,-1.7454,-1.7443,-1.7487,-1.747,-1.7486,-1.7497,-1.7498,-1.7502,-1.7489,-1.751,-1.7551,-1.7555,-1.7506,-1.7505,-1.7504,0,-1.7178,-1.7226,-1.726,-1.7274,-1.7311,-1.7327,-1.7343,-1.7369,-1.7388,-1.7414,-1.7426,-1.7457,-1.7473,-1.7496,-1.7512,-1.7503,-1.7554,-1.7545,-1.7563,-1.7562,-1.7572,-1.7571,-1.7615,-1.7583,-1.7583,-1.7583,-1.7583,0,-1.7212,-1.7241,-1.7268,-1.7289,-1.7321,-1.7338,-1.737,-1.7386,-1.741,-1.7434,-1.7444,-1.7466,-1.7487,-1.7512,-1.7525,-1.7559,-1.7567,-1.7575,-1.7578,-1.7574,-1.7573,-1.7584,-1.7582,-1.7585,-1.7584,-1.7584,-1.7584,0,-1.7234,-1.7253,-1.7292,-1.7324,-1.7332,-1.7355,-1.7382,-1.7403,-1.7419,-1.745,-1.7458,-1.7482,-1.7513,-1.7532,-1.7571,-1.758,-1.7617,-1.7619,-1.7608,-1.7609,-1.7626,-1.7623,-1.7677,-1.7685,-1.7649,-1.7649,-1.7649,0,-1.7255,-1.7277,-1.7312,-1.7329,-1.7345,-1.7373,-1.7392,-1.7409,-1.7429,-1.7461,-1.7478,-1.751,-1.7536,-1.7585,-1.7606,-1.7636,-1.7639,-1.7656,-1.7643,-1.7638,-1.7638,-1.7637,-1.7639,-1.7657,-1.7658,-1.7658,-1.7658,0,-1.7289,-1.7298,-1.7324,-1.7355,-1.7377,-1.7402,-1.7426,-1.744,-1.7462,-1.7483,-1.7515,-1.7535,-1.7575,-1.7606,-1.7638,-1.7654,-1.766,-1.7662,-1.7668,-1.7663,-1.7656,-1.766,-1.7613,-1.7661,-1.766,-1.766,-1.766,-1.766,-1.7311,-1.7331,-1.7358,-1.7388,-1.7409,-1.7431,-1.7453,-1.7471,-1.7498,-1.7532,-1.7541,-1.7574,-1.7601,-1.7645,-1.7662,-1.7688,-1.7686,-1.7694,-1.7696,-1.7698,-1.7698,-1.7652,-1.7694,-1.7694,-1.7694,-1.7694,-1.7694,0,-1.7345,-1.7363,-1.739,-1.7425,-1.7448,-1.7452,-1.7479,-1.7499,-1.7528,-1.7553,-1.7578,-1.7615,-1.7645,-1.7669,-1.77,-1.7717,-1.772,-1.7724,-1.7723,-1.7727,-1.7699,-1.769,-1.7721,-1.7721,-1.7721,-1.7721,-1.7721,-1.7721,-1.7366,-1.74,-1.7412,-1.7456,-1.7475,-1.7507,-1.7523,-1.7544,-1.7564,-1.7604,-1.763,-1.7645,-1.767,-1.7703,-1.7731,-1.7737,-1.7748,-1.7752,-1.7759,-1.7732,-1.7729,-1.7726,-1.7718,-1.7754,-1.7754,-1.7785,-1.7785,-1.7785]}]]